Weather History for Catania, Italy

Change the Weather History Date:

Friday, October 19, 2012

  Actual Average Record
Temperature  
Mean Temperature 72 °F -  
Max Temperature 75 °F 72 °F 86 °F (1998)
Min Temperature 66 °F 52 °F 50 °F (2011)
Cooling Degree Days 6    
Growing Degree Days 22 (Base 50)    
Moisture  
Dew Point 62 °F    
Average Humidity 73    
Maximum Humidity 83    
Minimum Humidity 61    
Precipitation  
Precipitation 0.00 in 0.10 in - ()
Sea Level Pressure  
Sea Level Pressure 30.14 in    
Wind  
Wind Speed 8 mph ()    
Max Wind Speed 13 mph    
Max Gust Speed -    
Visibility 6.2 miles    
Events      
Averages and records for this station are not official NWS values.
T = Trace of Precipitation, MM = Missing Value Source: Averaged Metar Reports

Daily Weather History Graph

Daily Weather History Graph

Search for Another Location

Airport:

Trip Planner

Search our weather history database for the weather conditions in past years. The results will help you decide how hot, cold, wet, or windy it might be!

Date:

Astronomy

Oct. 19, 2012 Rise Set
Actual Time 7:11 AM CEST 6:16 PM CEST
Civil Twilight 6:45 AM CEST 6:43 PM CEST
Nautical Twilight 6:14 AM CEST 7:13 PM CEST
Astronomical Twilight 5:44 AM CEST 7:43 PM CEST
Moon 11:33 AM CEST (10/19) 9:40 PM CEST (10/19)
Length of Visible Light 11h 57m
Length of Day
11h 05m
Waxing Crescent, 21% of the Moon is Illuminated
Oct 19
Waxing Crescent
Oct 22
First Quarter
Oct 29
Full
Nov 7
Last Quarter
Nov 13
New

Hourly Weather History & Observations

Time (CEST) Temp. Dew Point Humidity Pressure Visibility Wind Dir Wind Speed Gust Speed Precip Events Conditions
12:20 AM 69.8 °F 62.6 °F 78% 30.15 in 6.2 mi East 9.2 mph - N/A   Mostly Cloudy
12:50 AM 69.8 °F 62.6 °F 78% 30.15 in 6.2 mi East 9.2 mph - N/A   Mostly Cloudy
1:20 AM 69.8 °F 62.6 °F 78% 30.15 in 6.2 mi ENE 9.2 mph - N/A   Mostly Cloudy
1:50 AM 69.8 °F 62.6 °F 78% 30.15 in 6.2 mi East 8.1 mph - N/A   Mostly Cloudy
2:20 AM 69.8 °F 62.6 °F 78% 30.15 in 6.2 mi East 9.2 mph - N/A   Mostly Cloudy
2:50 AM 69.8 °F 62.6 °F 78% 30.15 in 6.2 mi East 8.1 mph - N/A   Mostly Cloudy
3:20 AM 69.8 °F 62.6 °F 78% 30.15 in 6.2 mi East 6.9 mph - N/A   Mostly Cloudy
3:50 AM 69.8 °F 62.6 °F 78% 30.12 in 6.2 mi East 6.9 mph - N/A   Mostly Cloudy
4:20 AM 69.8 °F 62.6 °F 78% 30.12 in 6.2 mi East 8.1 mph - N/A   Mostly Cloudy
4:50 AM 69.8 °F 62.6 °F 78% 30.12 in 6.2 mi East 8.1 mph - N/A   Mostly Cloudy
5:20 AM 69.8 °F 62.6 °F 78% 30.12 in 6.2 mi East 8.1 mph - N/A   Mostly Cloudy
5:50 AM 69.8 °F 62.6 °F 78% 30.15 in 6.2 mi East 5.8 mph - N/A   Mostly Cloudy
6:20 AM 69.8 °F 62.6 °F 78% 30.15 in 6.2 mi East 6.9 mph - N/A   Mostly Cloudy
6:50 AM 69.8 °F 62.6 °F 78% 30.15 in 6.2 mi East 6.9 mph - N/A   Mostly Cloudy
7:20 AM 69.8 °F 62.6 °F 78% 30.15 in 6.2 mi East 6.9 mph - N/A   Mostly Cloudy
7:50 AM 69.8 °F 62.6 °F 78% 30.15 in 6.2 mi East 6.9 mph - N/A   Mostly Cloudy
8:20 AM 69.8 °F 60.8 °F 73% 30.15 in 6.2 mi East 8.1 mph - N/A   Mostly Cloudy
8:50 AM 71.6 °F 62.6 °F 73% 30.15 in 6.2 mi East 9.2 mph - N/A   Mostly Cloudy
9:20 AM 71.6 °F 60.8 °F 69% 30.18 in 6.2 mi East 9.2 mph - N/A   Mostly Cloudy
9:50 AM 71.6 °F 62.6 °F 73% 30.18 in 6.2 mi East 10.4 mph - N/A   Mostly Cloudy
10:20 AM 73.4 °F 62.6 °F 69% 30.18 in 6.2 mi East 11.5 mph - N/A   Mostly Cloudy
10:50 AM 73.4 °F 60.8 °F 65% 30.18 in 6.2 mi East 9.2 mph - N/A   Mostly Cloudy
11:20 AM 73.4 °F 60.8 °F 65% 30.18 in 6.2 mi ESE 10.4 mph - N/A   Mostly Cloudy
11:50 AM 75.2 °F 60.8 °F 61% 30.18 in 6.2 mi East 11.5 mph - N/A   Scattered Clouds
12:20 PM 73.4 °F 60.8 °F 65% 30.18 in 6.2 mi East 11.5 mph - N/A   Scattered Clouds
12:50 PM 73.4 °F 60.8 °F 65% 30.15 in 6.2 mi East 11.5 mph - N/A   Partly Cloudy
1:20 PM 75.2 °F 60.8 °F 61% 30.15 in 6.2 mi East 11.5 mph - N/A   Partly Cloudy
1:50 PM 75.2 °F 60.8 °F 61% 30.15 in 6.2 mi East 10.4 mph - N/A   Partly Cloudy
2:20 PM 75.2 °F 60.8 °F 61% 30.12 in 6.2 mi East 10.4 mph - N/A   Partly Cloudy
2:50 PM 73.4 °F 62.6 °F 69% 30.12 in 6.2 mi East 11.5 mph - N/A   Partly Cloudy
3:20 PM 73.4 °F 62.6 °F 69% 30.12 in 6.2 mi East 12.7 mph - N/A   Partly Cloudy
3:50 PM 73.4 °F 60.8 °F 65% 30.12 in 6.2 mi East 11.5 mph - N/A   Partly Cloudy
4:20 PM 73.4 °F 60.8 °F 65% 30.12 in 6.2 mi East 10.4 mph - N/A   Partly Cloudy
4:50 PM 71.6 °F 60.8 °F 69% 30.12 in 6.2 mi East 9.2 mph - N/A   Partly Cloudy
5:20 PM 71.6 °F 60.8 °F 69% 30.12 in 6.2 mi East 8.1 mph - N/A   Partly Cloudy
5:50 PM 71.6 °F 60.8 °F 69% 30.12 in 6.2 mi East 6.9 mph - N/A   Scattered Clouds
6:20 PM 69.8 °F 60.8 °F 73% 30.12 in 6.2 mi East 5.8 mph - N/A   Scattered Clouds
6:50 PM 68.0 °F 60.8 °F 78% 30.12 in 6.2 mi East 6.9 mph - N/A   Scattered Clouds
7:20 PM 68.0 °F 60.8 °F 78% 30.12 in 6.2 mi East 5.8 mph - N/A   Mostly Cloudy
7:50 PM 68.0 °F 60.8 °F 78% 30.12 in 6.2 mi East 5.8 mph - N/A   Mostly Cloudy
8:20 PM 69.8 °F 60.8 °F 73% 30.15 in 6.2 mi East 5.8 mph - N/A   Mostly Cloudy
8:50 PM 69.8 °F 60.8 °F 73% 30.15 in 6.2 mi ENE 6.9 mph - N/A   Mostly Cloudy
9:20 PM 71.6 °F 60.8 °F 69% 30.15 in 6.2 mi NNE 4.6 mph - N/A   Mostly Cloudy
9:50 PM 69.8 °F 60.8 °F 73% 30.15 in 6.2 mi NE 4.6 mph - N/A   Mostly Cloudy
10:20 PM 69.8 °F 60.8 °F 73% 30.15 in 6.2 mi NE 3.5 mph - N/A   Mostly Cloudy
10:50 PM 69.8 °F 60.8 °F 73% 30.15 in 6.2 mi Calm Calm - N/A   Mostly Cloudy
11:20 PM 68.0 °F 60.8 °F 78% 30.15 in 6.2 mi Variable 1.2 mph - N/A   Mostly Cloudy
11:50 PM 66.2 °F 60.8 °F 83% 30.15 in 6.2 mi NW 2.3 mph - N/A   Mostly Cloudy